This is the latest recevied weather packets stored in our database for station/object DM3FAM-10. If no packets are shown the sender has not sent any weather packets the latest 10 day(s).
| Time | Temp. | Humidity | Pressure | Rain* | Wind** | Luminosity | Snow |
|---|---|---|---|---|---|---|---|
| 1777840657 | 12.78° C | 86% | 966.2 hPa | - | - | - | - |
| 1777839757 | 13.33° C | 85% | 966.4 hPa | - | - | - | - |
| 1777838857 | 13.33° C | 80% | 966.4 hPa | - | - | - | - |
| 1777837957 | 13.33° C | 79% | 966.3 hPa | - | - | - | - |
| 1777837057 | 13.33° C | 83% | 966.3 hPa | - | - | - | - |
| 1777836157 | 13.89° C | 76% | 966.2 hPa | - | - | - | - |
| 1777835257 | 13.89° C | 79% | 966.1 hPa | - | - | - | - |
| 1777834357 | 14.44° C | 75% | 966.1 hPa | - | - | - | - |
| 1777833457 | 15° C | 65% | 966.2 hPa | - | - | - | - |
| 1777832557 | 15.56° C | 61% | 966.2 hPa | - | - | - | - |
| 1777831657 | 16.11° C | 48% | 966.3 hPa | - | - | - | - |
| 1777830757 | 16.11° C | 45% | 966.3 hPa | - | - | - | - |
| 1777829856 | 16.67° C | 47% | 966.5 hPa | - | - | - | - |
| 1777828959 | 16.67° C | 47% | 966.6 hPa | - | - | - | - |
| 1777828056 | 17.22° C | 44% | 966.6 hPa | - | - | - | - |
| 1777827156 | 17.78° C | 42% | 966.7 hPa | - | - | - | - |
| 1777826256 | 17.78° C | 41% | 966.6 hPa | - | - | - | - |
| 1777825356 | 17.22° C | 43% | 966.6 hPa | - | - | - | - |
| 1777824456 | 18.33° C | 40% | 966.5 hPa | - | - | - | - |
| 1777823555 | 18.89° C | 37% | 966.5 hPa | - | - | - | - |
| 1777822655 | 19.44° C | 36% | 966.4 hPa | - | - | - | - |
| 1777821755 | 20.56° C | 35% | 966.2 hPa | - | - | - | - |
| 1777820855 | 21.11° C | 32% | 965.9 hPa | - | - | - | - |
| 1777819955 | 21.67° C | 30% | 965.9 hPa | - | - | - | - |
| 1777819055 | 24.44° C | 25% | 965.8 hPa | - | - | - | - |
* Rain since midnight (hover to see other rain measurements)
** Current wind speed in m/s (hover to see current wind gust speed)